Time,TemperatureF,DewpointF,PressureIn,WindDirection,WindDirectionDegrees,WindSpeedMPH,WindSpeedGustMPH,Humidity,HourlyPrecipIn,Conditions,Clouds,dailyrainin,SoftwareType,DateUTC
2013-07-17 00:06:00,65.0,64.0,30.11,SW,234,0.0,0.0,96,0.00,,,0.00,weatherlink.com 1.10,2013-07-17 04:06:00,
2013-07-17 00:21:00,64.8,64.0,30.11,SW,234,0.0,0.0,96,0.00,,,0.00,weatherlink.com 1.10,2013-07-17 04:21:00,
2013-07-17 00:36:00,64.7,64.0,30.11,SW,234,0.0,0.0,96,0.00,,,0.00,weatherlink.com 1.10,2013-07-17 04:36:00,
2013-07-17 00:51:00,64.6,64.0,30.10,SW,234,0.0,0.0,96,0.00,,,0.00,weatherlink.com 1.10,2013-07-17 04:51:00,
2013-07-17 01:06:00,64.5,64.0,30.11,SW,234,0.0,0.0,97,0.00,,,0.00,weatherlink.com 1.10,2013-07-17 05:06:00,
2013-07-17 01:21:00,64.5,64.0,30.11,SW,234,1.0,1.0,97,0.00,,,0.00,weatherlink.com 1.10,2013-07-17 05:21:00,
2013-07-17 01:36:00,64.4,64.0,30.11,SW,234,0.0,0.0,97,0.00,,,0.00,weatherlink.com 1.10,2013-07-17 05:36:00,
2013-07-17 01:51:00,64.4,63.0,30.10,SW,234,0.0,1.0,96,0.00,,,0.00,weatherlink.com 1.10,2013-07-17 05:51:00,
2013-07-17 02:06:00,64.3,63.0,30.10,SW,234,0.0,2.0,96,0.00,,,0.00,weatherlink.com 1.10,2013-07-17 06:06:00,
2013-07-17 02:22:00,64.0,63.0,30.10,SW,234,2.0,2.0,96,0.00,,,0.00,weatherlink.com 1.10,2013-07-17 06:22:00,
2013-07-17 02:37:00,64.1,63.0,30.10,SW,234,1.0,2.0,97,0.00,,,0.00,weatherlink.com 1.10,2013-07-17 06:37:00,
2013-07-17 02:52:00,64.0,63.0,30.10,SW,234,1.0,2.0,96,0.00,,,0.00,weatherlink.com 1.10,2013-07-17 06:52:00,
2013-07-17 03:07:00,63.9,63.0,30.09,SW,234,1.0,2.0,97,0.00,,,0.00,weatherlink.com 1.10,2013-07-17 07:07:00,
2013-07-17 03:22:00,64.0,63.0,30.09,SW,234,2.0,3.0,97,0.00,,,0.00,weatherlink.com 1.10,2013-07-17 07:22:00,
2013-07-17 03:37:00,64.4,64.0,30.09,NNE,28,2.0,4.0,97,0.00,,,0.00,weatherlink.com 1.10,2013-07-17 07:37:00,
2013-07-17 03:52:00,64.5,63.0,30.10,NNE,28,2.0,4.0,95,0.00,,,0.00,weatherlink.com 1.10,2013-07-17 07:52:00,
2013-07-17 04:07:00,64.6,63.0,30.10,NNE,30,1.0,3.0,95,0.00,,,0.00,weatherlink.com 1.10,2013-07-17 08:07:00,
2013-07-17 04:22:00,64.2,63.0,30.10,NNE,30,2.0,3.0,95,0.00,,,0.00,weatherlink.com 1.10,2013-07-17 08:22:00,
2013-07-17 04:37:00,64.0,63.0,30.10,NNE,30,1.0,3.0,96,0.00,,,0.00,weatherlink.com 1.10,2013-07-17 08:37:00,
2013-07-17 04:52:00,63.8,63.0,30.10,NNE,30,2.0,3.0,96,0.00,,,0.00,weatherlink.com 1.10,2013-07-17 08:52:00,
2013-07-17 05:07:00,63.5,62.0,30.11,NNE,30,2.0,3.0,96,0.00,,,0.00,weatherlink.com 1.10,2013-07-17 09:07:00,
2013-07-17 05:22:00,63.7,63.0,30.11,NNE,29,2.0,4.0,96,0.00,,,0.00,weatherlink.com 1.10,2013-07-17 09:22:00,
2013-07-17 05:38:00,63.7,63.0,30.12,NNE,28,4.0,4.0,96,0.00,,,0.00,weatherlink.com 1.10,2013-07-17 09:38:00,
2013-07-17 05:52:00,63.8,63.0,30.12,NNE,22,3.0,4.0,96,0.00,,,0.00,weatherlink.com 1.10,2013-07-17 09:52:00,
2013-07-17 06:07:00,63.8,63.0,30.12,NNE,22,2.0,3.0,97,0.00,,,0.00,weatherlink.com 1.10,2013-07-17 10:07:00,
2013-07-17 06:22:00,64.0,63.0,30.11,NNE,22,2.0,3.0,97,0.00,,,0.00,weatherlink.com 1.10,2013-07-17 10:22:00,
2013-07-17 06:37:00,64.8,64.0,30.12,NNE,19,2.0,4.0,96,0.00,,,0.00,weatherlink.com 1.10,2013-07-17 10:37:00,
2013-07-17 06:52:00,66.0,64.0,30.12,NNE,26,4.0,4.0,94,0.00,,,0.00,weatherlink.com 1.10,2013-07-17 10:52:00,
2013-07-17 07:07:00,66.7,65.0,30.12,NNE,12,3.0,5.0,93,0.00,,,0.00,weatherlink.com 1.10,2013-07-17 11:07:00,
2013-07-17 07:22:00,67.3,65.0,30.12,North,9,2.0,6.0,91,0.00,,,0.00,weatherlink.com 1.10,2013-07-17 11:22:00,
2013-07-17 07:37:00,67.7,65.0,30.12,North,11,3.0,5.0,90,0.00,,,0.00,weatherlink.com 1.10,2013-07-17 11:37:00,
2013-07-17 07:52:00,68.4,65.0,30.13,NE,34,2.0,5.0,88,0.00,,,0.00,weatherlink.com 1.10,2013-07-17 11:52:00,
2013-07-17 08:07:00,69.5,66.0,30.12,NNE,24,3.0,4.0,87,0.00,,,0.00,weatherlink.com 1.10,2013-07-17 12:07:00,
2013-07-17 08:22:00,70.5,66.0,30.13,NNE,30,0.0,4.0,86,0.00,,,0.00,weatherlink.com 1.10,2013-07-17 12:22:00,
2013-07-17 08:37:00,72.1,66.0,30.13,ENE,78,1.0,4.0,81,0.00,,,0.00,weatherlink.com 1.10,2013-07-17 12:37:00,
2013-07-17 08:52:00,73.7,67.0,30.12,SE,130,2.0,5.0,79,0.00,,,0.00,weatherlink.com 1.10,2013-07-17 12:52:00,
2013-07-17 09:07:00,74.8,68.0,30.12,NW,323,2.0,4.0,78,0.00,,,0.00,weatherlink.com 1.10,2013-07-17 13:07:00,
2013-07-17 09:22:00,74.8,67.0,30.12,NNW,336,3.0,5.0,76,0.00,,,0.00,weatherlink.com 1.10,2013-07-17 13:22:00,
2013-07-17 09:37:00,75.3,67.0,30.11,NNW,327,3.0,6.0,76,0.00,,,0.00,weatherlink.com 1.10,2013-07-17 13:37:00,
2013-07-17 09:52:00,75.9,68.0,30.11,NNE,28,4.0,6.0,77,0.00,,,0.00,weatherlink.com 1.10,2013-07-17 13:52:00,
2013-07-17 10:07:00,76.6,68.0,30.11,NNW,343,5.0,6.0,75,0.00,,,0.00,weatherlink.com 1.10,2013-07-17 14:07:00,
2013-07-17 10:22:00,77.1,67.0,30.11,NNW,328,2.0,8.0,72,0.00,,,0.00,weatherlink.com 1.10,2013-07-17 14:22:00,
2013-07-17 10:37:00,77.6,67.0,30.11,NW,325,3.0,8.0,69,0.00,,,0.00,weatherlink.com 1.10,2013-07-17 14:37:00,
2013-07-17 10:52:00,78.4,66.0,30.10,NNE,17,3.0,6.0,66,0.00,,,0.00,weatherlink.com 1.10,2013-07-17 14:52:00,
2013-07-17 11:07:00,78.9,67.0,30.10,WNW,290,4.0,9.0,68,0.00,,,0.00,weatherlink.com 1.10,2013-07-17 15:07:00,
2013-07-17 11:22:00,79.7,65.0,30.10,NE,36,5.0,10.0,61,0.00,,,0.00,weatherlink.com 1.10,2013-07-17 15:22:00,
2013-07-17 11:37:00,80.5,65.0,30.10,NNW,335,1.0,7.0,60,0.00,,,0.00,weatherlink.com 1.10,2013-07-17 15:37:00,
2013-07-17 11:52:00,81.4,69.0,30.09,South,169,3.0,7.0,65,0.00,,,0.00,weatherlink.com 1.10,2013-07-17 15:52:00,
2013-07-17 12:07:00,81.1,66.0,30.09,NNW,333,0.0,8.0,61,0.00,,,0.00,weatherlink.com 1.10,2013-07-17 16:07:00,
2013-07-17 12:22:00,81.6,65.0,30.08,North,5,3.0,7.0,57,0.00,,,0.00,weatherlink.com 1.10,2013-07-17 16:22:00,
2013-07-17 12:37:00,81.9,66.0,30.08,NW,306,3.0,8.0,59,0.00,,,0.00,weatherlink.com 1.10,2013-07-17 16:37:00,
2013-07-17 12:52:00,81.8,65.0,30.07,ENE,65,5.0,9.0,58,0.00,,,0.00,weatherlink.com 1.10,2013-07-17 16:52:00,
2013-07-17 13:07:00,82.3,66.0,30.07,NNW,343,3.0,8.0,58,0.00,,,0.00,weatherlink.com 1.10,2013-07-17 17:07:00,
2013-07-17 13:22:00,83.1,69.0,30.06,WNW,296,4.0,8.0,62,0.00,,,0.00,weatherlink.com 1.10,2013-07-17 17:22:00,
2013-07-17 13:37:00,83.4,66.0,30.06,West,271,4.0,9.0,55,0.00,,,0.00,weatherlink.com 1.10,2013-07-17 17:37:00,
2013-07-17 13:52:00,83.5,65.0,30.05,NNW,341,1.0,10.0,53,0.00,,,0.00,weatherlink.com 1.10,2013-07-17 17:52:00,
2013-07-17 14:07:00,84.1,68.0,30.05,NNW,347,6.0,6.0,59,0.00,,,0.00,weatherlink.com 1.10,2013-07-17 18:07:00,
2013-07-17 14:22:00,84.1,66.0,30.04,WNW,298,1.0,8.0,54,0.00,,,0.00,weatherlink.com 1.10,2013-07-17 18:22:00,
2013-07-17 14:37:00,84.0,66.0,30.04,NW,313,3.0,8.0,54,0.00,,,0.00,weatherlink.com 1.10,2013-07-17 18:37:00,
2013-07-17 14:52:00,84.4,66.0,30.03,South,171,4.0,8.0,55,0.00,,,0.00,weatherlink.com 1.10,2013-07-17 18:52:00,
2013-07-17 15:07:00,83.9,65.0,30.02,NNW,333,1.0,6.0,54,0.00,,,0.00,weatherlink.com 1.10,2013-07-17 19:07:00,
2013-07-17 15:22:00,84.2,66.0,30.01,South,191,2.0,5.0,55,0.00,,,0.00,weatherlink.com 1.10,2013-07-17 19:22:00,
2013-07-17 15:37:00,85.2,66.0,30.01,South,175,4.0,7.0,53,0.00,,,0.00,weatherlink.com 1.10,2013-07-17 19:37:00,
2013-07-17 15:52:00,86.1,69.0,30.00,NNE,32,3.0,5.0,56,0.00,,,0.00,weatherlink.com 1.10,2013-07-17 19:52:00,
2013-07-17 16:07:00,85.2,66.0,30.00,NE,50,1.0,8.0,53,0.00,,,0.00,weatherlink.com 1.10,2013-07-17 20:07:00,
2013-07-17 16:23:00,85.2,66.0,30.00,NNE,23,3.0,10.0,53,0.00,,,0.00,weatherlink.com 1.10,2013-07-17 20:23:00,
2013-07-17 16:38:00,84.8,66.0,30.00,NNE,13,7.0,10.0,54,0.00,,,0.00,weatherlink.com 1.10,2013-07-17 20:38:00,
2013-07-17 16:53:00,84.8,66.0,29.99,North,355,5.0,7.0,53,0.00,,,0.00,weatherlink.com 1.10,2013-07-17 20:53:00,
2013-07-17 17:08:00,85.4,66.0,29.98,NE,34,2.0,5.0,53,0.00,,,0.00,weatherlink.com 1.10,2013-07-17 21:08:00,
2013-07-17 17:23:00,85.2,66.0,29.97,NNE,28,5.0,10.0,52,0.00,,,0.00,weatherlink.com 1.10,2013-07-17 21:23:00,
2013-07-17 17:38:00,84.8,67.0,29.97,NW,313,1.0,6.0,56,0.00,,,0.00,weatherlink.com 1.10,2013-07-17 21:38:00,
2013-07-17 17:53:00,84.3,68.0,29.96,SW,228,0.0,3.0,59,0.00,,,0.00,weatherlink.com 1.10,2013-07-17 21:53:00,
2013-07-17 18:08:00,85.5,67.0,29.96,SW,223,2.0,5.0,54,0.00,,,0.00,weatherlink.com 1.10,2013-07-17 22:08:00,
2013-07-17 18:23:00,85.2,68.0,29.97,North,9,4.0,6.0,56,0.00,,,0.00,weatherlink.com 1.10,2013-07-17 22:23:00,
2013-07-17 18:38:00,83.6,67.0,29.97,NNE,18,3.0,7.0,58,0.00,,,0.00,weatherlink.com 1.10,2013-07-17 22:38:00,
2013-07-17 18:53:00,82.0,68.0,29.97,NE,39,3.0,6.0,62,0.00,,,0.00,weatherlink.com 1.10,2013-07-17 22:53:00,
2013-07-17 19:08:00,80.7,68.0,29.97,NNE,24,1.0,5.0,65,0.00,,,0.00,weatherlink.com 1.10,2013-07-17 23:08:00,
2013-07-17 19:23:00,79.1,68.0,29.97,ENE,59,0.0,5.0,68,0.00,,,0.00,weatherlink.com 1.10,2013-07-17 23:23:00,
2013-07-17 19:38:00,78.4,68.0,29.97,NE,51,2.0,2.0,70,0.00,,,0.00,weatherlink.com 1.10,2013-07-17 23:38:00,
2013-07-17 19:53:00,77.3,68.0,29.96,SE,130,1.0,3.0,74,0.00,,,0.00,weatherlink.com 1.10,2013-07-17 23:53:00,
2013-07-17 20:08:00,75.7,68.0,29.95,ENE,78,0.0,4.0,76,0.00,,,0.00,weatherlink.com 1.10,2013-07-18 00:08:00,
2013-07-17 20:23:00,74.9,68.0,29.95,ENE,74,0.0,3.0,78,0.00,,,0.00,weatherlink.com 1.10,2013-07-18 00:23:00,
2013-07-17 20:38:00,74.0,67.0,29.96,ENE,65,0.0,3.0,79,0.00,,,0.00,weatherlink.com 1.10,2013-07-18 00:38:00,
2013-07-17 20:53:00,74.5,68.0,29.96,ENE,64,2.0,4.0,79,0.00,,,0.00,weatherlink.com 1.10,2013-07-18 00:53:00,
2013-07-17 21:08:00,74.7,68.0,29.97,NE,40,0.0,4.0,79,0.00,,,0.00,weatherlink.com 1.10,2013-07-18 01:08:00,
2013-07-17 21:23:00,74.2,68.0,29.97,NE,43,3.0,3.0,80,0.00,,,0.00,weatherlink.com 1.10,2013-07-18 01:23:00,
2013-07-17 21:38:00,73.7,68.0,29.97,NE,49,2.0,4.0,82,0.00,,,0.00,weatherlink.com 1.10,2013-07-18 01:38:00,
2013-07-17 21:53:00,73.3,68.0,29.96,NE,52,2.0,3.0,83,0.00,,,0.00,weatherlink.com 1.10,2013-07-18 01:53:00,
2013-07-17 22:08:00,72.9,68.0,29.96,NE,51,1.0,3.0,84,0.00,,,0.00,weatherlink.com 1.10,2013-07-18 02:08:00,
2013-07-17 22:23:00,72.4,68.0,29.96,NE,51,3.0,4.0,85,0.00,,,0.00,weatherlink.com 1.10,2013-07-18 02:23:00,
2013-07-17 22:38:00,72.8,68.0,29.95,NE,52,2.0,3.0,84,0.00,,,0.00,weatherlink.com 1.10,2013-07-18 02:38:00,
2013-07-17 22:53:00,72.5,68.0,29.96,NE,51,2.0,3.0,85,0.00,,,0.00,weatherlink.com 1.10,2013-07-18 02:53:00,
2013-07-17 23:08:00,72.3,68.0,29.96,NE,46,1.0,3.0,86,0.00,,,0.00,weatherlink.com 1.10,2013-07-18 03:08:00,
2013-07-17 23:24:00,72.0,68.0,29.96,NE,54,2.0,3.0,87,0.00,,,0.00,weatherlink.com 1.10,2013-07-18 03:24:00,
2013-07-17 23:39:00,72.7,68.0,29.96,NE,55,0.0,3.0,86,0.00,,,0.00,weatherlink.com 1.10,2013-07-18 03:39:00,
2013-07-17 23:54:00,72.1,68.0,29.96,ENE,58,0.0,2.0,87,0.00,,,0.00,weatherlink.com 1.10,2013-07-18 03:54:00,